一网星座-0570星 (ONEWEB-0570)

导读 | 星芒AI

ONEWEB-0570 是 OneWeb 卫星星座计划中的一颗低轨通信卫星,旨在为全球提供高速互联网服务。该卫星采用标准化设计,由阿丽亚娜航天公司制造,搭载星间激光通信技术,提升网络效率与覆盖能力。2023年发射入轨后,它与其他 OneWeb 卫星共同构建起覆盖极地和偏远地区的通信网络,服务于航空、海运及地面用户。该星座项目由多个政府与企业合作推进,致力于缩小全球数字鸿沟。

基本信息
目录编号:
55149
目录名称:
ONEWEB-0570
国际标识:
2023-004K
轨道中心:
EARTH
卫星名称:
一网星座-0570星
卫星全名:
一网星座-0570星 (ONEWEB-0570)
卫星状态:
在轨 (已飞行1071 天)
发射日期:
2023-01-10 UTC
国别 :
英国 (GB)
星等 :
--
轨道信息
数据来源 国际轨道数据 AOE轨道数据
星历时间 2025-12-15T16:30:41+0800
18小时前
查看轨道信息
2025-12-13T23:00:00+0800
2天前
查看轨道信息
半长轴 7567.888km 7567.891km
偏心率 0.0001382 0.0001383
轨道倾角 87.917° 87.918°
近地点辐角 106.703° 118.965°
升交点赤经 11.995° 12.339°
平近点角 253.426° 314.799°
近地点 1188.707km 1188.709km
远地点 1190.799km 1190.803km
周期 109.200分钟 109.200分钟
每日圈数 13.186841 13.186834
详细信息
平衡模式:
三轴稳定
覆盖范围:
全球
运营商:
一网卫星公司
运营商所在国:
英国
制造商(研发单位):
一网卫星公司
制造商所在国:
英国
使用方式:
暂无
卫星简介
OneWeb卫星网络由648颗重约125公斤的微型卫星组成,运行在1200公里的轨道上。 每颗卫星都能够提供至少每秒8千兆位的吞吐量,以使用其高吞吐量的Ku频段有效载荷为家庭和移动平台提供互联网接入。该卫星仍在工作。
2D轨道图
3D轨道图
轨道高度分析图
轨道倾角分析图
轨道综合分析图
查看轨道综合分析图